Weather reports worldwide

Advertisment
Northolt, United Kingdom (3672): temperature & dewpoint: 21.05.2018 09:00:00 - 27.05.2018 09:00:00 (BST)Northolt, United Kingdom (3672): temperature -20cm & temperature -100cm: 21.05.2018 09:00:00 - 27.05.2018 09:00:00 (BST)Northolt, United Kingdom (3672): wind speed & gusts: 21.05.2018 09:00:00 - 27.05.2018 09:00:00 (BST)Northolt, United Kingdom (3672): wind direction: 21.05.2018 09:00:00 - 27.05.2018 09:00:00 (BST)Northolt, United Kingdom (3672): reduced air pressure: 21.05.2018 09:00:00 - 27.05.2018 09:00:00 (BST)Northolt, United Kingdom (3672): visibility: 21.05.2018 09:00:00 - 27.05.2018 09:00:00 (BST)Northolt, United Kingdom (3672): precipitation: 21.05.2018 09:00:00 - 27.05.2018 09:00:00 (BST)
Date & Time tt [°C] td [°C] tt -20cm [°C] tt -100cm [°C] ff [km/h] ff [kn] fx [km/h] fx [kn] dd ppp [hPa] vv [km] rr [mm]
27.05.2018 09:00:00 - - - - - - - - - - - -
27.05.2018 08:00:00 17,2 13,5 - - 15 8 - - E 1015,7 10 0,0
27.05.2018 07:00:00 15,8 13,0 - - 16 9 - - ENE 1015,6 9 0,0
27.05.2018 06:00:00 15,1 13,1 - - 13 7 - - NE 1015,5 8 0,0
27.05.2018 05:00:00 15,3 13,6 - - 15 8 - - ENE 1015,9 8 0,0
27.05.2018 04:00:00 14,9 13,8 - - 8 4 - - ENE 1016,1 6 0,0
27.05.2018 03:00:00 15,4 14,1 - - 18 10 - - NE 1016,1 8 0,6
27.05.2018 02:00:00 16,5 15,4 - - 22 12 - - NE 1016,9 5 2,4
27.05.2018 01:00:00 16,8 16,1 - - 18 10 - - SSE 1018,9 0,9 10,6
27.05.2018 00:00:00 17,3 15,6 - - 26 14 - - E 1018,0 1,5 4,8
26.05.2018 23:00:00 19,9 14,0 - - 22 12 - - ENE 1017,8 10 0,0
26.05.2018 22:00:00 20,8 15,1 - - 18 10 - - ENE 1018,3 10 0,0
26.05.2018 21:00:00 21,6 15,3 - - 26 14 - - E 1017,8 10 0,0
26.05.2018 20:00:00 23,2 15,1 - - 24 13 - - ENE 1017,4 10 0,0
26.05.2018 19:00:00 24,0 14,4 - - 29 16 - - E 1017,2 10 0,0
26.05.2018 18:00:00 24,7 14,7 - - 28 15 48 26 ENE 1017,0 10 0,0
26.05.2018 17:00:00 25,4 14,5 - - 31 17 46 25 E 1017,3 10 0,0
26.05.2018 16:00:00 25,5 15,0 - - 31 17 46 25 E 1017,6 10 0,0
26.05.2018 15:00:00 25,5 15,8 - - 34 18 46 25 ENE 1018,0 10 0,0
26.05.2018 14:00:00 24,7 15,8 - - 34 18 46 25 ENE 1018,4 10 0,0
26.05.2018 13:00:00 24,0 16,1 - - 24 13 - - ENE 1018,8 9 0,0
26.05.2018 12:00:00 22,5 15,6 - - 26 14 - - ENE 1019,0 8 0,0
26.05.2018 11:00:00 19,6 14,8 - - 18 10 - - NE 1019,3 7 0,0
26.05.2018 10:00:00 17,1 13,9 16,5 13,7 21 11 - - NE 1019,5 6 0,0
26.05.2018 09:00:00 15,2 14,2 - - 16 9 - - NE 1019,6 4,5 0,0
26.05.2018 08:00:00 15,1 13,7 - - 15 8 - - NE 1020,1 4,0 0,0
26.05.2018 07:00:00 15,0 13,7 - - 18 10 - - NE 1019,8 3,0 0,0
26.05.2018 06:00:00 14,7 13,7 - - 13 7 - - NNE 1019,5 3,4 0,0
26.05.2018 05:00:00 15,1 14,0 - - 15 8 - - NNE 1019,4 2,9 0,0
26.05.2018 04:00:00 15,0 14,0 - - 9 5 - - NE 1019,7 3,3 0,0
26.05.2018 03:00:00 15,3 14,0 - - 11 6 - - NE 1019,7 3,8 0,0
26.05.2018 02:00:00 15,0 13,6 - - 9 5 - - NE 1019,9 4,7 0,0
26.05.2018 01:00:00 15,2 13,7 - - 11 6 - - NE 1019,8 4,7 0,0
26.05.2018 00:00:00 15,5 13,6 - - 11 6 - - NNE 1019,8 5 0,0
25.05.2018 23:00:00 16,2 14,0 - - 9 5 - - ENE 1019,6 6 0,0
25.05.2018 22:00:00 16,5 14,0 - - 9 5 - - NE 1019,3 7 0,0
25.05.2018 21:00:00 16,9 13,7 - - 8 4 - - NNW 1018,8 7 0,0
25.05.2018 20:00:00 18,0 13,5 - - 8 4 - - NW 1018,6 8 0,0
25.05.2018 19:00:00 18,1 13,2 - - 5 3 - - WNW 1018,2 10 0,0
25.05.2018 18:00:00 17,9 13,3 - - 5 3 - - WNW 1018,2 10 0,0
25.05.2018 17:00:00 17,5 13,5 - - 11 6 - - W 1018,3 10 0,0
25.05.2018 16:00:00 17,3 13,1 - - 5 3 - - SW 1018,4 10 0,0
25.05.2018 15:00:00 17,3 13,0 - - 8 4 - - SW 1018,3 10 0,0
25.05.2018 14:00:00 17,2 12,8 - - 5 3 - - S 1018,2 15 0,0
25.05.2018 13:00:00 16,4 12,8 - - 8 4 - - W 1018,0 10 0,0
25.05.2018 12:00:00 15,9 12,5 - - 4 2 - - S 1017,9 10 0,0
25.05.2018 11:00:00 14,7 11,8 - - 4 2 - - NW 1018,0 10 0,0
25.05.2018 10:00:00 14,6 11,7 16,4 13,7 4 2 - - NW 1017,8 10 0,0
25.05.2018 09:00:00 13,6 11,3 - - 8 4 - - NNW 1017,8 10 0,0
25.05.2018 08:00:00 13,2 11,6 - - 8 4 - - NNW 1017,7 10 0,0
25.05.2018 07:00:00 12,9 11,8 - - 9 5 - - NNW 1017,4 9 0,2
25.05.2018 06:00:00 12,7 11,8 - - 5 3 - - NNW 1017,4 6 0,0
25.05.2018 05:00:00 12,7 11,7 - - 5 3 - - NNW 1017,4 6 0,0
25.05.2018 04:00:00 13,0 11,2 - - 11 6 - - N 1017,5 8 0,0
25.05.2018 03:00:00 13,5 11,1 - - 13 7 - - NNE 1017,6 10 0,0
25.05.2018 02:00:00 13,7 11,2 - - 11 6 - - N 1017,7 10 0,0
25.05.2018 01:00:00 13,8 11,3 - - 15 8 - - N 1018,0 10 0,0
25.05.2018 00:00:00 14,3 11,2 - - 15 8 - - NNE 1018,3 10 0,0
24.05.2018 23:00:00 15,9 11,8 - - 13 7 - - NE 1018,5 10 0,0
24.05.2018 22:00:00 16,6 13,6 - - 9 5 - - NNE 1018,3 10 0,0
24.05.2018 21:00:00 16,3 14,3 - - 5 3 - - NNW 1018,2 7 0,0
24.05.2018 20:00:00 16,7 14,1 - - 9 5 - - WNW 1018,1 10 0,0
24.05.2018 19:00:00 17,4 14,2 - - 11 6 - - WSW 1018,1 10 0,0
24.05.2018 18:00:00 17,8 14,1 - - 13 7 - - WSW 1018,0 10 0,0
24.05.2018 17:00:00 18,8 14,2 - - 15 8 - - SW 1017,9 10 0,0
24.05.2018 16:00:00 20,4 14,8 - - 22 12 - - W 1017,8 10 0,0
24.05.2018 15:00:00 18,8 13,8 - - 15 8 - - NW 1018,8 10 0,0
24.05.2018 14:00:00 17,1 12,8 - - 11 6 - - N 1019,6 10 0,0
24.05.2018 13:00:00 17,2 12,4 - - 16 9 - - NE 1020,1 10 0,0
24.05.2018 12:00:00 15,6 11,8 - - 16 9 - - NE 1020,7 9 0,0
24.05.2018 11:00:00 14,0 11,9 - - 21 11 - - NE 1020,9 7 0,0
24.05.2018 10:00:00 11,6 10,6 16,2 13,7 15 8 - - NNE 1021,3 5 0,0
24.05.2018 09:00:00 11,1 10,0 - - 13 7 - - NNE 1021,5 6 0,2
24.05.2018 08:00:00 10,9 9,9 - - 16 9 - - NNE 1021,3 6 0,0
24.05.2018 07:00:00 10,5 9,6 - - 18 10 - - NNE 1021,4 6 0,2
24.05.2018 06:00:00 10,4 9,4 - - 21 11 - - NNE 1021,4 8 1,0
24.05.2018 05:00:00 10,5 9,7 - - 21 11 - - NNE 1021,7 5 4,0
24.05.2018 04:00:00 10,7 9,8 - - 9 5 - - NE 1021,8 1,8 8,0
24.05.2018 03:00:00 10,8 9,6 - - 15 8 - - NE 1021,9 8 0,4
24.05.2018 02:00:00 11,1 9,4 - - 15 8 - - NNE 1022,3 10 0,2
24.05.2018 01:00:00 11,5 8,4 - - 16 9 - - NE 1022,8 14 0,0
24.05.2018 00:00:00 11,2 8,1 - - 16 9 - - NNE 1023,0 10 0,0
23.05.2018 23:00:00 11,7 8,4 - - 18 10 - - NNE 1023,0 10 0,0
23.05.2018 22:00:00 12,1 8,6 - - 21 11 - - NNE 1023,3 10 0,0
23.05.2018 21:00:00 13,0 8,8 - - 22 12 - - NE 1023,0 10 0,0
23.05.2018 20:00:00 14,0 8,9 - - 22 12 - - NNE 1022,7 10 0,0
23.05.2018 19:00:00 15,8 9,7 - - 24 13 - - NNE 1022,3 10 0,0
23.05.2018 18:00:00 16,7 9,8 - - 22 12 - - NNE 1022,2 10 0,0
23.05.2018 17:00:00 17,5 10,0 - - 22 12 - - NNE 1022,4 10 0,0
23.05.2018 16:00:00 17,8 9,5 - - 22 12 - - NE 1022,7 10 0,0
23.05.2018 15:00:00 17,8 9,4 - - 24 13 - - NNE 1023,0 10 0,0
23.05.2018 14:00:00 17,1 9,1 - - 21 11 - - NE 1023,3 22 0,0
23.05.2018 13:00:00 15,7 8,8 - - 22 12 - - NNE 1023,7 10 0,0
23.05.2018 12:00:00 14,6 8,3 - - 24 13 - - NNE 1024,3 10 0,0
23.05.2018 11:00:00 13,7 8,3 - - 21 11 - - NNE 1024,3 10 0,0
23.05.2018 10:00:00 12,2 7,9 16,4 13,4 18 10 - - NNE 1024,2 10 0,0
23.05.2018 09:00:00 11,3 7,6 - - 21 11 - - NNE 1024,2 10 0,0
23.05.2018 08:00:00 10,7 7,4 - - 22 12 - - NNE 1023,8 10 0,0
23.05.2018 07:00:00 10,5 7,5 - - 21 11 - - NNE 1023,4 10 0,0
23.05.2018 06:00:00 10,6 7,6 - - 13 7 - - NNE 1022,8 10 0,0
23.05.2018 05:00:00 10,5 7,5 - - 15 8 - - NNE 1022,5 10 0,0
23.05.2018 04:00:00 10,6 7,4 - - 18 10 - - NE 1022,4 14 0,0
23.05.2018 03:00:00 10,6 7,4 - - 26 14 - - NE 1022,4 10 0,0
23.05.2018 02:00:00 10,9 7,9 - - 18 10 - - NNE 1022,0 10 0,0
23.05.2018 01:00:00 11,2 8,1 - - 18 10 - - NNE 1021,9 10 0,0
23.05.2018 00:00:00 11,3 8,4 - - 13 7 - - NE 1021,5 10 0,0
22.05.2018 23:00:00 11,8 8,5 - - 16 9 - - NE 1021,1 10 0,0
22.05.2018 22:00:00 13,0 8,7 - - 18 10 - - NNE 1020,5 10 0,0
22.05.2018 21:00:00 15,1 8,0 - - 22 12 - - NE 1019,5 10 0,0
22.05.2018 20:00:00 17,0 8,5 - - 28 15 - - NE 1018,9 10 0,0
22.05.2018 19:00:00 19,1 7,8 - - 29 16 46 25 NNE 1018,0 10 0,0
22.05.2018 18:00:00 20,6 8,3 - - 26 14 - - NNE 1017,3 10 0,0
22.05.2018 17:00:00 21,2 8,5 - - 28 15 - - NE 1017,0 10 0,0
22.05.2018 16:00:00 22,0 8,9 - - 26 14 - - NNE 1016,7 10 0,0
22.05.2018 15:00:00 21,8 9,5 - - 24 13 - - NE 1016,6 10 0,0
22.05.2018 14:00:00 21,8 10,8 - - 24 13 - - NNE 1016,5 10 0,0
22.05.2018 13:00:00 20,9 11,0 - - 22 12 - - NNE 1016,4 10 0,0
22.05.2018 12:00:00 19,5 9,8 - - 24 13 - - NE 1016,4 10 0,0
22.05.2018 11:00:00 18,6 9,1 - - 18 10 - - NNE 1016,2 10 0,0
22.05.2018 10:00:00 17,3 8,2 16,0 13,2 22 12 - - NNE 1016,2 10 0,0
22.05.2018 09:00:00 15,4 7,5 - - 18 10 - - NNE 1016,1 10 0,0
22.05.2018 08:00:00 14,2 7,6 - - 18 10 - - NNE 1016,0 10 0,0
22.05.2018 07:00:00 12,7 8,2 - - 16 9 - - N 1015,7 10 0,0
22.05.2018 06:00:00 11,7 8,2 - - 16 9 - - N 1015,0 15 0,0
22.05.2018 05:00:00 12,0 8,7 - - 11 6 - - N 1014,7 10 0,0
22.05.2018 04:00:00 12,6 9,0 - - 15 8 - - N 1014,6 10 0,0
22.05.2018 03:00:00 13,0 9,5 - - 13 7 - - N 1014,4 10 0,0
22.05.2018 02:00:00 13,3 9,6 - - 9 5 - - NNE 1014,6 10 0,0
22.05.2018 01:00:00 13,7 9,5 - - 8 4 - - N 1014,7 10 0,0
22.05.2018 00:00:00 16,0 9,7 - - 13 7 - - NNE 1014,8 26 0,0
21.05.2018 23:00:00 17,9 10,3 - - 15 8 - - NNE 1014,5 10 0,0
21.05.2018 22:00:00 18,3 10,6 - - 11 6 - - N 1014,5 10 0,0
21.05.2018 21:00:00 18,7 11,0 - - 9 5 - - N 1014,3 10 0,0
21.05.2018 20:00:00 20,7 10,0 - - 18 10 - - NNE 1014,1 10 0,0
21.05.2018 19:00:00 21,0 8,0 - - 15 8 - - NNE 1014,1 10 0,0
21.05.2018 18:00:00 22,0 9,6 - - 11 6 - - NE 1013,9 10 0,0
21.05.2018 17:00:00 21,4 11,3 - - 16 9 - - NE 1014,2 10 0,0
21.05.2018 16:00:00 21,4 12,8 - - 11 6 - - NE 1014,5 10 0,0
21.05.2018 15:00:00 21,8 10,8 - - 15 8 - - NE 1014,9 10 0,0
21.05.2018 14:00:00 21,2 10,3 - - 13 7 - - NNE 1015,2 10 0,0
21.05.2018 13:00:00 21,5 9,6 - - 11 6 - - NE 1015,4 10 0,0
21.05.2018 12:00:00 21,3 9,9 - - 9 5 - - NNE 1015,9 10 0,0
21.05.2018 11:00:00 20,1 10,2 - - 8 4 - - NE 1016,4 10 0,0
21.05.2018 10:00:00 17,7 9,9 15,7 13,0 5 3 - - NNE 1016,8 10 0,0
21.05.2018 09:00:00 16,2 9,3 - - 8 4 - - NE 1017,4 10 0,0

tt = temperature
td = dewpoint
tt -20cm = temperature -20cm
tt -100cm = temperature -100cm
ff = wind speed
fx = gusts
dd = wind direction
ppp = reduced air pressure
vv = visibility
rr = precipitation

Next stations